Tracking 29892 objects as of 21-Nov-2024
HD Live streaming from Space Station
objects crossing your sky now

FENGYUN 1C DEB

Track FENGYUN 1C DEB now!
10-day predictions


NORAD ID: 30739
Int'l Code: 1999-025ASZ
Perigee: 778.8 km
Apogee: 926.8 km
Inclination: 98.7 °
Period: 101.8 minutes
Semi major axis: 7223 km
RCS: 0.0088 m2 (small)
Launch date: May 10, 1999
Source: People's Republic of China (PRC)
Launch site: Taiyaun Space Center, China (TSC)

Note: This is SATELLITE DEBRIS
Your satellite tracking list
Your tracking list is empty




NASA's NSSDC Master Catalog

Two Line Element Set (TLE):
1 30739U 99025ASZ 24324.24782531  .00001492  00000-0  76819-3 0  9994
2 30739  98.6648 316.2022 0102439 347.8438  23.2589 14.14026189913713
Source of the keplerian elements: AFSPC